Location: Atlanta
(33.7490°N, 84.3880°W)
Time: 13:41:12
(UTC-04:00)

Daily predictions for brighter satellites

Satellite Brightness Start Highest point End
(mag) Time Altitude Azimuth Time Altitude Azimuth Time Altitude Azimuth
Cosmos 292 Rocket 3.8 21:02:51 10° SSW 21:07:41 82° ESE 21:12:31 10° NNE
NOSS 2-2 (D) 3.4 21:04:41 10° SSW 21:08:33 59° ESE 21:12:44 10° NE
Aureole 1 Rocket 4.2 21:06:56 10° SE 21:08:48 14° ESE 21:10:32 10° ENE
Meteor 1-29 4.2 21:06:45 10° NE 21:09:25 22° E 21:12:04 10° SSE
CENTAUR R/B 3.8 21:07:50 10° NNW 21:15:16 40° NE 21:22:58 10° ESE
Cosmos 1818 3.8 21:10:46 10° SSW 21:16:11 81° WNW 21:21:39 10° NNE
Cosmos 773 Rocket 3.9 21:14:22 10° SSW 21:19:31 83° ESE 21:24:40 10° NNE
Cosmos 1709 Rocket 4.0 21:13:26 10° N 21:19:42 76° E 21:25:51 10° S
YAOGAN 6 4.4 21:18:46 10° ESE 21:20:52 15° ENE 21:22:59 10° NNE
Cosmos 1656 Rocket 4.5 21:20:11 10° N 21:25:07 34° ENE 21:29:29 13° SE
NOSS 2-2 (C) 3.5 21:23:21 10° SSW 21:27:19 82° WNW 21:31:38 10° NNE
USA 81 4.1 21:25:30 10° S 21:30:41 62° E 21:35:54 10° N
Cosmos 2369 Rocket 3.4 21:26:48 10° NW 21:32:05 41° WSW 21:37:22 10° S
Spot 1 4.4 21:28:15 10° SSE 21:32:44 51° ENE 21:36:59 10° N
Spot 2 Rocket 4.0 21:30:07 10° S 21:35:04 59° WSW 21:40:03 10° NNW
Cosmos 405 Rocket 2.8 21:34:03 10° S 21:37:39 52° E 21:41:22 10° NNE
SL-27 R/B 3.3 21:37:40 11° SSE 21:40:47 32° E 21:44:06 10° NE
USA 186 2.8 21:39:43 10° S 21:42:50 45° W 21:45:55 10° NNW
Helios 1A 2.9 21:39:19 11° SSE 21:43:21 76° ENE 21:47:33 10° N
Cosmos 1943 Rocket 2.5 21:37:51 10° NNW 21:43:24 66° WSW 21:48:52 10° S
Tiangong 2 1.8 21:41:39 10° WSW 21:44:47 55° NNW 21:47:54 10° NE
Cosmos 1680 Rocket 3.5 21:39:58 10° S 21:45:08 65° ESE 21:50:19 10° NNE
Cosmos 1536 Rocket 3.8 21:43:35 10° SSW 21:47:53 72° W 21:52:12 10° N
Cosmos 1441 Rocket 3.8 21:47:08 20° SSE 21:49:08 35° E 21:52:34 10° NNE
Cosmos 1500 4.1 21:46:29 10° NNW 21:50:08 47° W 21:53:44 10° SSW
ASTEX 1 3.9 21:49:33 19° SE 21:52:36 40° E 21:57:10 10° N
Aureole 3 Rocket 3.8 21:47:30 10° S 21:54:43 75° E 21:59:49 10° N
Cosmos 1975 3.7 21:52:43 10° NNW 21:56:39 49° W 22:00:35 10° SSW
ARGOS 4.5 21:54:42 18° ESE 21:57:06 24° ENE 22:01:22 10° NNE
Envisat 3.1 21:52:04 10° S 21:57:08 75° WSW 22:02:13 10° NNW
Meteor 1-13 Rocket 4.4 21:52:28 10° S 21:58:25 85° W 22:04:22 10° N
Cosmos 1238 Rocket 4.3 21:52:53 10° SSE 21:59:20 56° E 22:05:49 10° NNE
Cosmos 2074 Rocket 4.0 21:54:16 10° N 22:00:30 68° E 22:05:23 17° SSE
Cosmos 2184 Rocket 4.0 21:55:10 10° N 22:01:30 66° E 22:06:13 18° SSE
COSMOS 2406 3.5 21:57:00 10° SSW 22:02:43 71° WNW 22:08:26 10° NNE
ISS -3.1 22:01:03 10° WSW 22:04:17 55° NW 22:07:32 10° NE
Cosmos 405 4.1 22:02:01 10° NNE 22:05:06 27° ENE 22:05:24 27° E
CZ-3A R/B 1.0 22:00:27 10° SW 22:07:03 61° SE 22:08:35 21° ENE
Cosmos 1939 Rocket 3.2 22:06:48 17° S 22:09:36 59° W 22:13:25 10° NNW
CZ-4B DEB 3.2 22:08:14 25° SSW 22:09:40 52° W 22:12:36 10° NNW
Cosmos 2082 Rocket 3.8 22:12:52 16° E 22:12:52 16° E 22:15:20 10° ENE
OAO 2 Rocket 3.3 22:06:53 10° W 22:11:50 78° N 22:15:28 19° E
Cosmos 1025 Rocket 3.1 22:11:09 31° SSE 22:12:53 53° E 22:17:02 10° NNE
Resurs 01 Rocket 4.3 22:13:24 10° SW 22:16:07 16° W 22:18:49 10° WNW
Cosmos 1743 3.2 22:13:55 10° NNW 22:17:45 57° W 22:20:02 22° SSW
Helios 1B rocket 4.3 22:14:30 10° N 22:18:10 31° WNW 22:21:47 10° SW
MetOp-B 4.4 22:18:59 32° SE 22:21:11 52° ENE 22:26:22 10° N
ASTRO E2 2.9 22:17:44 10° W 22:21:37 51° S 22:22:08 47° SSE
COSMOS 2455 3.9 22:16:50 10° NW 22:22:24 40° WSW 22:26:55 15° S
Cosmos 374 Rocket 4.2 22:22:11 10° NNW 22:25:58 90° ESE 22:26:57 50° SSE
Nadezhda 1 Rocket 4.2 22:23:53 10° S 22:30:11 76° W 22:36:37 10° N
Cosmos 1371 Rocket 4.5 22:26:49 10° N 22:31:55 45° ENE 22:33:10 38° ESE
Intercosmos 24 3.6 22:30:54 10° N 22:34:35 61° E 22:34:35 61° E
H-2A R/B 4.1 22:41:37 16° ENE 22:41:37 16° ENE 22:44:13 10° NNE
Cosmos 1437 Rocket 3.1 22:37:59 10° N 22:41:21 48° ENE 22:41:21 48° ENE
ERS-1 Rocket 3.2 22:41:28 33° S 22:43:38 63° WSW 22:48:37 10° NNW
Meteor 2-9 Rocket 4.3 22:38:13 10° NNW 22:43:42 74° W 22:46:13 34° S
Cosmos 2154 Rocket 3.9 22:38:54 10° N 22:45:17 79° E 22:47:47 40° SSE
Cosmos 1666 3.9 22:42:04 10° NNW 22:45:31 36° W 22:46:39 29° SW
SL-08 RB Rocket 3.8 22:46:40 54° E 22:46:54 55° ENE 22:51:16 10° N
USA 267 4.4 22:45:47 10° ENE 22:48:42 23° E 22:48:42 23° E
Okean 2 3.7 22:51:27 49° SW 22:52:17 62° W 22:56:21 10° N
Cosmos 1833 Rocket 3.4 22:54:08 36° E 22:54:08 36° E 22:58:23 10° NE
Meteor 2-19 Rocket 4.3 22:53:57 10° N 23:00:06 78° E 23:01:35 53° SSE
Cosmos 1066 Rocket 4.5 23:01:31 47° E 23:01:31 47° E 23:06:38 10° NNE
H-2A R/B 1.9 23:02:16 61° E 23:02:26 61° ENE 23:07:22 10° N
Landsat 7 4.3 23:04:53 46° ENE 23:04:53 46° ENE 23:09:09 10° N
CENTAUR R/B 3.8 22:58:27 10° NW 23:06:09 47° WSW 23:10:10 29° SSW
SPOT 5 2.9 23:11:37 59° W 23:11:37 59° W 23:15:54 10° NNW
Cosmos 2341 Rocket 4.0 23:08:37 10° N 23:14:58 82° W 23:16:33 54° S
Cosmos 1624 Rocket 3.9 23:10:26 10° NNW 23:15:44 84° WSW 23:16:02 79° SSW
Cosmos 1892 Rocket 4.1 23:18:38 52° W 23:18:51 52° W 23:23:11 10° N
Terra 2.6 23:20:24 42° NE 23:20:24 42° NE 23:24:11 10° N
DMSP B5D2-2 3.9 23:15:01 10° NNE 23:20:16 82° E 23:20:16 82° E
Cosmos 2228 3.7 23:16:50 10° N 23:20:01 47° NNE 23:20:01 47° NNE
Tiangong 2 3.9 23:19:41 10° NW 23:21:52 18° NNW 23:21:52 18° NNW
Cosmos 921 Rocket 3.6 23:21:29 10° NNW 23:25:01 54° N 23:25:01 54° N
Cosmos 1980 Rocket 4.0 23:22:54 10° NNE 23:26:46 19° ENE 23:27:03 18° ENE
SL-19 R/B 4.3 23:21:49 10° NNE 23:26:17 57° NE 23:26:17 57° NE
Cosmos 2218 Rocket 3.9 23:23:33 10° N 23:29:40 65° E 23:29:46 65° E
Cosmos 2056 Rocket 3.8 23:29:33 10° NNW 23:34:24 57° W 23:34:24 57° W
ARGOS 4.2 23:36:13 34° WSW 23:37:04 36° W 23:42:03 10° NNW
CZ-4B R/B 4.4 23:34:58 10° NNE 23:38:20 39° NE 23:38:20 39° NE
Cosmos 1809 Rocket 4.3 23:45:33 10° N 23:51:25 84° NNW 23:51:25 84° NNW
